This is the latest recevied weather packets stored in our database for station/object N2OCK. If no packets are shown the sender has not sent any weather packets the latest 10 day(s).
| Time | Temp. | Humidity | Pressure | Rain* | Wind** | Luminosity | Snow |
|---|---|---|---|---|---|---|---|
| 1777671138 | 15° C | 51% | 1011 hPa | 0 mm | - | 244 W/m² | - |
| 1777670834 | 15° C | 52% | 1011.4 hPa | 0 mm | - | 259 W/m² | - |
| 1777670531 | 15° C | 49% | 1011 hPa | 0 mm | - | 274 W/m² | - |
| 1777670228 | 15.56° C | 49% | 1010.9 hPa | 0 mm | - | 288 W/m² | - |
| 1777669925 | 16.11° C | 48% | 1010.9 hPa | 0 mm | - | 305 W/m² | - |
| 1777669622 | 17.22° C | 45% | 1010.9 hPa | 0 mm | - | 317 W/m² | - |
| 1777669318 | 16.11° C | 45% | 1010.7 hPa | 0 mm | - | 332 W/m² | - |
| 1777669014 | 16.67° C | 44% | 1010.8 hPa | 0 mm | - | 346 W/m² | - |
| 1777668712 | 17.22° C | 45% | 1010.9 hPa | 0 mm | - | 361 W/m² | - |
| 1777668409 | 17.22° C | 46% | 1010.8 hPa | 0 mm | - | 377 W/m² | - |
| 1777668104 | 17.22° C | 45% | 1010.6 hPa | 0 mm | - | 402 W/m² | - |
| 1777667801 | 17.78° C | 44% | 1010.7 hPa | 0 mm | - | 401 W/m² | - |
| 1777667499 | 18.33° C | 34% | 1010.7 hPa | 0 mm | - | 423 W/m² | - |
| 1777667196 | 18.33° C | 33% | 1010.6 hPa | 0 mm | - | 443 W/m² | - |
| 1777666893 | 18.89° C | 34% | 1010.4 hPa | 0 mm | - | 456 W/m² | - |
| 1777666589 | 18.33° C | 35% | 1010.6 hPa | 0 mm | - | 462 W/m² | - |
| 1777666286 | 17.78° C | 37% | 1010.8 hPa | 0 mm | - | 474 W/m² | - |
| 1777665983 | 18.33° C | 35% | 1010.7 hPa | 0 mm | - | 481 W/m² | - |
| 1777665681 | 17.78° C | 34% | 1010.6 hPa | 0 mm | - | 501 W/m² | - |
| 1777665378 | 17.78° C | 35% | 1010.6 hPa | 0 mm | - | 517 W/m² | - |
| 1777665074 | 18.33° C | 34% | 1010.7 hPa | 0 mm | - | 526 W/m² | - |
| 1777664769 | 18.33° C | 35% | 1010.7 hPa | 0 mm | - | 536 W/m² | - |
| 1777664465 | 17.78° C | 35% | 1010.9 hPa | 0 mm | - | 549 W/m² | - |
| 1777664163 | 18.33° C | 34% | 1010.9 hPa | 0 mm | - | 558 W/m² | - |
| 1777663861 | 18.89° C | 35% | 1011 hPa | 0 mm | - | 568 W/m² | - |
* Rain latest hour (hover to see other rain measurements)
** Current wind speed in m/s (hover to see current wind gust speed)